Weather Roundup
Issued by NWS Corpus Christi, TX

Home | Current Version | Previous Version | Text Only | Print | Product List | Glossary On
Versions: 1 2 3 4 5 6 7 8 9 10 11 12 13 14 15 16 17 18 19 20 21 22 23 24 25 26 27 28 29 30 31 32 33 34 35 36 37 38 39 40 41 42 43 44 45 46 47 48 49 50
000
ASUS44 KCRP 291010
HRRCRP

SOUTH TEXAS REGIONAL WEATHER ROUNDUP
NATIONAL WEATHER SERVICE CORPUS CHRISTI TX
500 AM CDT MON MAY 29 2017


TXZ229>244-291100-
...CORPUS CHRISTI AREA OBSERVATIONS...

CITY           SKY/WX    TMP DP  RH WIND       PRES   REMARKS
CORPUS CHRISTI TSTM      70  69  97 S12       29.89F
NAS CORPUS CHR CLOUDY    72  72 100 W10       29.88F THUNDER
ROCKPORT       TSTM      75  72  90 SW8       29.90R FOG
KINGSVILLE NAS TSTM      72  70  93 SW3       29.90F
ALICE          TSTM      69  68  96 S8        29.90S
ORANGE GROVE   TSTM      71  70  96 S15       29.89F
FALFURRIAS     CLOUDY    71  68  91 NE16      29.88F
$$

...VICTORIA AREA OBSERVATIONS...

CITY           SKY/WX    TMP DP  RH WIND       PRES   REMARKS
VICTORIA       CLOUDY    72  69  90 CALM      29.87F
BEEVILLE       TSTM     N/A N/A N/A E3        29.90R
PLEASANTON     LGT RAIN  71  67  88 NE8       29.93S
SAN ANTONIO    CLOUDY    72  67  84 NE6       29.96R THUNDER
$$

...LAREDO AREA OBSERVATIONS...

CITY           SKY/WX    TMP DP  RH WIND       PRES   REMARKS
LAREDO         CLOUDY    73  70  90 N3        29.94R
COTULLA        CLOUDY    77  71  82 E14       29.86S
DEL RIO        CLOUDY    70  68  93 NW6       29.96R
MCALLEN        TSTM      72  69  90 N10       29.94F
HEBBRONVILLE   LGT RAIN  67  65  94 CALM      29.87F
$$

...OTHER TEXAS OBSERVATIONS...

CITY           SKY/WX    TMP DP  RH WIND       PRES   REMARKS
BROWNSVILLE    TSTM      71  69  93 N12G21    29.96R
HOUSTON        CLOUDY    70  67  90 N9        29.87F
COL. STATION   CLOUDY    69  69 100 W3        29.92F
AUSTIN         CLOUDY    72  68  87 SE3       29.96F
WACO           CLOUDY    70  70 100 CALM      29.98R
FORT WORTH     CLOUDY    68  65  90 N10       29.95F
WICHITA FALLS  CLEAR     64  52  64 CALM      30.03S
LUBBOCK        PTCLDY    55  41  59 E5        30.13S
EL PASO        CLEAR     69  42  37 CALM      30.08R
$$

...MARINE OBSERVATIONS...

STATION/POSITION TIME  SKY/WX   TEMP    WIND        PRES    VSBY  WAVE   SWELL
                                AIR SEA DIR/SP/G                  HT/PER HT/PER
                 (UTC)          (F)     (DEG/KT/KT) (MB)    (MI)  (FT/S) (FT/S)
PORT ARANSAS     1000            72 80  100/ 13/ 16 1012.4R
BUOY 90 E PORT A 0850            74 80   20/ 29/ 37 1011.5          4/ 6   2/10
BUOY 45 SE BAFFI 0950            72     310/ 27/ 35 1009.9          4/ 7   2/ 7
BUOY 200 E PT IS 0850            80 81  160/ 12/ 16 1012.8          6/ 8   5/ 8
BUOY 15 E GALVES 0850            75 80   40/ 19/ 21 1014.0          4/ 5
$$




USA.gov is the U.S. government's official web portal to all federal, state and local government web resources and services.